User: anonymous   Login
Location: Berg
(47.2344°N, 9.5296°E)
Time: 05:16:23
(UTC+00:00)
Language:

CSL-04 Debris - Orbit

View from above orbital plane
View from above orbital plane
View from above satellite
View from above satellite

Ground track
Ground track

The orbit data is extracted from the following two-line orbital elements,

1 25733U 99025D   21101.89591763  .00000098  00000-0  71851-4 0  9991
2 25733  98.9163 137.1976 0014885 189.3158 170.7741 14.16449308131948
Epoch (UTC): 11 April 2021 21:30:07
Eccentricity: 0.0014885
inclination: 98.9163°
perigee height: 826 km
apogee height: 848 km
right ascension of ascending node: 137.1976°
argument of perigee: 189.3158°
revolutions per day: 14.16449308
mean anomaly at epoch: 170.7741°
orbit number at epoch: 13194

The dashed part of the orbit path shows where the satellite is in the earth's shadow,  

DLR